Location: ??????????
(54.8537°N, 38.8755°E)
Time: 04:50:44
(UTC+00:00)

Tiros 1 despin weight - Pass Details

Date: 21 September 2024
Orbit: 572 x 614 km, 48.2° (Epoch: 10 October)

Event Time Altitude Azimuth Distance (km) Brightness Sun altitude
Rises 22:12:33 0° 212° (SSW) 2,843 - -33.8°
Reaches altitude 10° 22:15:24 10° 194° (SSW) 1,952 - -33.6°
Maximum altitude 22:18:27 18° 151° (SSE) 1,499 - -33.5°
Drops below altitude 10° 22:21:32 10° 108° (ESE) 1,972 - -33.4°
Exits shadow 22:23:53 - 92° (E) 2,697 ? -33.2°
Sets 22:24:26 0° 90° (E) 2,884 ? -33.2°
